Preview of NWS' New Version of Forecast
This preview is not operational and should not be used for support decisions.
Latest weather observations around

Joplin, Joplin Regional Airport (KJLN)

Using International System of Units (Switch to English Units)
Date/ Time (CST) Wind (kph) Vis. (km) Weather Sky Cond. Temp (°C) Rel. Humidity Wind Chill (°C) Heat Index (°C) Pressure Precip. (cm)
Air Dwpt 6 hour Altimeter (hPa) Sea level (hPa) 1 hr 3 hr 6 hr
Max Min
Feb 19 21:29 NW 15 6.44 Light Rain and Fog/Mist FEW007 BKN018 OVC024 12 12     100%     1008.8   0    
Feb 19 21:02 NW 5 6.44 Light Rain and Fog/Mist FEW003 BKN010 OVC016 12 12     100%     1008.5   0    
Feb 19 20:53 NW 5 4.02 Rain and Fog/Mist FEW003 OVC010 12 12     100%     1008.5 1008 0 1  
Feb 19 20:08 S 24 16.09 Light Rain SCT022 BKN029 OVC044 18 17     96%     1008.1   0    
Feb 19 19:53 S 24 11.27 Light Rain BKN035 BKN045 OVC060 18 18     100%     1007.8 1007.3 0    
Feb 19 19:51 S 22 9.66 Light Rain and Fog/Mist SCT031 BKN040 OVC060 18 17     94%     1008.1   0    
Feb 19 19:35 S 24 4.83 Light Rain and Fog/Mist FEW019 BKN042 OVC090 18 18     100%     1008.1   0    
Feb 19 19:20 S 28 4.83 Thunderstorms and Rain and Fog/Mist SCT020 BKN037 OVC090 18 18     100%     1008.5   0    
Feb 19 19:13 S 28 4.83 Light Rain and Fog/Mist SCT017 BKN037 OVC090 18 18     100%     1008.5   0    
Feb 19 18:53 S 26 16.09 Light Rain SCT016 BKN025 OVC095 18 17     96%     1008.8 1008.1 0    
Feb 19 18:34   9.66 Light Rain and Fog/Mist SCT016 BKN055 OVC095 18 18     100%     1008.5   0    
Feb 19 18:23 S 26 9.66 Thunderstorms and Rain and Fog/Mist SCT018 BKN034 OVC085 18 18     100%     1008.5   0    
Feb 19 17:53   16.09 Mostly Cloudy SCT021 BKN070 18 17     96%     1007.5 1006.9 0   0
Feb 19 17:50 S 30 12.87 Mostly Cloudy SCT021 BKN070 18 17     94%     1007.1   0    
Feb 19 17:30   12.87 Thunderstorms and Rain OVC018 18 17     93%     1008.8   0    
Feb 19 16:53 S 18 9.66 Light Rain and Fog/Mist BKN024 BKN037 OVC060 18 18     100%     1007.5 1006.8 0    
Feb 19 15:53 SSW 28 9.66 Light Rain and Fog/Mist BKN013 BKN026 OVC042 18 18     97%     1007.5 1006.7 0    
Feb 19 14:53 S 35 16.09 Cloudy and Windy BKN010 OVC026 19 18     93%     1007.5 1006.6 0 0  
Feb 19 13:53   16.09 Light Rain BKN022 OVC036 19 17     90%     1007.1 1006.6 0    
Feb 19 12:53   16.09 Cloudy OVC017 18 17     93%     1007.5 1007      
Feb 19 11:53   16.09 Cloudy OVC016 18 17     93%     1008.5 1007.8 0   1
Feb 19 11:39 S 33 16.09 Cloudy and Windy BKN010 OVC020 18 17     93%     1008.5   0    
Feb 19 11:11   16.09 Light Rain BKN015 BKN020 OVC026 17 17     97%     1008.8   0    
Feb 19 10:56 S 35 16.09 Light Rain BKN013 BKN018 OVC022 17 17     97%     1008.8   0    
Feb 19 10:53   16.09 Light Rain SCT011 BKN015 OVC022 17 17     97%     1008.8 1008.4 0    
Feb 19 10:48 S 33 16.09 Light Rain SCT009 BKN015 OVC022 17 17     100%     1008.8   0    
Feb 19 09:53 S 26 2.41 Heavy Rain and Fog/Mist BKN009 OVC040 16 16     100%     1008.8 1008.5 0    
Feb 19 09:51   2.82 Rain and Fog/Mist BKN009 OVC040 16 16     100%     1009.2   0    
Feb 19 09:45 S 30 6.44 Light Rain and Fog/Mist BKN009 BKN040 OVC047 16 16     100%     1008.8   0    
Feb 19 08:53 S 33 16.09 Light Rain BKN013 BKN026 BKN036 17 16     96%     1008.1 1007.8 0 0  
Feb 19 08:48 S 30 16.09 Light Rain BKN013 BKN026 BKN036 16 16     100%     1008.8   0    
Feb 19 08:23 S 33 16.09 Light Rain FEW013 BKN036 OVC100 16 16     100%     1008.8   0    
Feb 19 07:53 S 35 11.27 Light Rain FEW045 SCT080 BKN100 16 16     97%     1008.1 1007.7 0    
Feb 19 07:41   16.09 Mostly Cloudy FEW060 SCT080 BKN100 16 16     97%     1008.1   0    
Feb 19 07:18   9.66 Thunderstorms and Rain and Fog/Mist BKN017 BKN045 OVC100 16 16     97%     1007.1   0    
Feb 19 06:53   12.87 Light Rain BKN024 BKN090 OVC110 16 16     100%     1008.1 1007.7 0    
Feb 19 06:08 S 33 16.09 Cloudy and Windy FEW016 BKN024 OVC047 16 16     97%     1008.1   0    
Feb 19 05:53 SSW 39 12.87 Thunderstorms and Rain FEW015 BKN024 OVC070 16 16     97%     1008.1 1007.7 0   0
Feb 19 05:46 S 33 8.05 Light Rain and Fog/Mist SCT022 BKN029 OVC070 16 16     100%     1008.1   0    
Feb 19 05:38 S 33 14.48 Thunderstorms and Rain SCT023 BKN030 OVC048 16 16     100%     1008.1   0    
Feb 19 05:28 S 35 4.02 Thunderstorms and Heavy Rain and Fog/Mist SCT021 BKN030 BKN044 16 16     97%     1008.1   0    
Feb 19 05:19 SSW 32 14.48 Thunderstorms and Rain SCT025 BKN090 BKN110 16 15     93%     1008.1   0    
Feb 19 05:05   16.09 Light Rain SCT026 SCT070 BKN100 16 15     93%     1007.8   0    
Feb 19 04:53   16.09 Light Rain BKN026 BKN050 BKN085 17 15     90%     1008.1 1007.6 0    
Feb 19 04:16   16.09 Mostly Cloudy FEW017 BKN050 BKN060 17 15     90%     1007.8        
Feb 19 03:53   16.09 Cloudy BKN015 OVC025 17 15     90%     1007.8 1007.1      
Feb 19 03:19   16.09 Cloudy OVC010 16 15     93%     1007.8        
Feb 19 02:53   14.48 Cloudy OVC008 16 14     93%     1007.8 1007.2      
Feb 19 01:53   12.87 Cloudy OVC008 14 14     100%     1008.1 1007.5      
Feb 19 00:53   14.48 Cloudy OVC008 14 14     97%     1008.5 1008      
Feb 19 00:03   16.09 Cloudy OVC009 14 13     96%     1008.5        
Feb 18 23:53   16.09 Cloudy OVC011 14 13     93%     1008.5 1008.2      
Feb 18 22:53   16.09 Cloudy OVC012 14 13     90%     1008.5 1008.3      
Feb 18 21:53 S 37 16.09 Cloudy and Windy OVC012 13 12     90%     1008.8 1008.6      
Feb 18 20:53   16.09 Cloudy OVC013 13 11     89%     1009.2 1009      
Feb 18 19:53 S 33 16.09 Cloudy and Windy OVC018 13 9     80%     1008.5 1008.6      
Feb 18 18:53 S 26 16.09 Cloudy OVC022 12 7     72%     1009.5 1009.4      
Feb 18 17:53 S 28 16.09 Cloudy OVC022 13 6     64%     1009.8 1010      
Feb 18 17:28 S 28 16.09 Mostly Cloudy BKN027 BKN090 13 6     60%     1009.8        
Feb 18 16:53 S 32 16.09 Mostly Cloudy and Windy SCT050 BKN090 14 5     55%     1010.2 1010.3      
Feb 18 15:53 S 32 16.09 Partly Cloudy and Windy SCT055 14 4     51%     1011.2 1011.1      
Feb 18 14:53 S 28 16.09 Clear CLR 15 3     44%     1012.2 1012.2      
Feb 18 13:53 S 26 16.09 Clear CLR 14 1     40%     1013.6 1013.5      
Feb 18 12:53 S 28 16.09 Clear CLR 14 -1     36%     1014.9 1014.9      
Feb 18 11:53 S 22 16.09 Clear CLR 11 -1     43%     1016.9 1017.1      
Feb 18 10:53 S 24 16.09 Clear CLR 9 -1     50% 6   1018.3 1018.4      
Feb 18 09:53 S 30 16.09 Clear CLR 7 -1     60% 2   1019.3 1019.4      
Feb 18 08:53 SE 26 16.09 Clear CLR 6 -1     64% 1   1019.3 1019.6      
Feb 18 07:53 SSE 28 16.09 Clear CLR 4 -1     72% -1   1019.7 1019.9      
Feb 18 06:53 SSE 17 16.09 Clear CLR 3 1     85% -1   1020 1020.4      
Feb 18 05:53 S 13 14.48 Clear CLR 1 0     96% -3   1021 1021.3      
Feb 18 04:53 SSE 11 16.09 Clear CLR 2 1     92% -1   1021.3 1021.5      
Feb 18 03:53 SE 13 16.09 Clear CLR 3 1     85% 0   1022 1022      
Feb 18 02:53 SE 9 16.09 Clear CLR 3 1     85% 1   1022.7 1022.7      
Feb 18 01:53 SSE 13 16.09 Clear CLR 3 2     92% -1   1023 1023.3      
Feb 18 00:53 S 13 16.09 Clear CLR 2 1     92% -2   1023.7 1024      
Feb 17 23:53 SSE 9 16.09 Clear CLR 4 2     86% 2   1023 1023.3      
Feb 17 22:53 SE 11 16.09 Clear CLR 5 2     79% 2   1023 1023.5      
Feb 17 21:53 S 8 16.09 Clear CLR 4 2     86% 3   1023.4 1023.6      
Feb 17 20:53 S 5 16.09 Clear CLR 4 2     86% 3   1023 1023.3      
Feb 17 19:53 S 8 16.09 Clear CLR 6 3     79% 5   1022.4 1022.8      
Feb 17 18:53 Calm 16.09 Clear CLR 6 3     79%     1022 1022.4      
Feb 17 17:53 Calm 16.09 Clear CLR 10 3     61%     1021.3 1021.4      
Feb 17 14:53 WNW 17 16.09 Clear CLR 11 4     63%     1020 1020.2      
Feb 17 13:53 W 18 16.09 Mostly Clear FEW020 9 4     71% 6   1019.3 1019.6      
Feb 17 12:53 WNW 18 16.09 Cloudy OVC017 7 4     82% 3   1019.7 1020      
Feb 17 12:36 W 26 16.09 Cloudy OVC015 6 4     86% 2   1019.7        
Feb 17 11:55 W 17 16.09 Cloudy OVC012 6 4     89% 2   1019        
Feb 17 11:53 W 18 16.09 Cloudy OVC009 6 4     92% 2   1019 1019.4     0
Feb 17 10:53 WSW 21 16.09 Cloudy OVC007 4 4     100% 0   1019 1019.4      
Feb 17 09:53 SW 17 12.87 Cloudy OVC005 4 4     100% 0   1018.6 1018.8 0    
Feb 17 09:12 SW 13 6.44 Fog/Mist BKN005 OVC011 4 4     100% 1   1017.6   0    
Feb 17 08:53 SSW 13 4.02 Light Rain and Fog/Mist BKN006 OVC010 4 4     100% 1   1017.3 1017.8 0 0  
Feb 17 08:06 Calm 2.41 Light Rain and Fog/Mist OVC009 3 3     100%     1017.3   0    
Feb 17 07:53 8 11.27 Cloudy OVC009 3 3     100% 1   1017.3 1017.6      
Feb 17 06:53 ESE 15 11.27 Cloudy OVC007 3 3     100% -1   1015.2 1015.8 0    
Feb 17 06:11 N 9 11.27 Light Rain BKN008 OVC015 3 3     100% 0   1016.3   0    
Feb 17 05:53 E 8 6.44 Rain and Fog/Mist BKN012 OVC017 3 3     100% 1   1015.6 1015.9 0   1
Feb 17 05:40 SE 11 6.44 Rain and Fog/Mist BKN014 OVC019 3 3     100% 0   1015.9   0    
Feb 17 04:53 ESE 8 11.27 Light Rain BKN025 BKN030 OVC041 3 3     100% 1   1015.9 1016.4 0    
Feb 17 03:53 SE 17 12.87 Light Rain SCT035 BKN047 OVC070 3 2     92% -1   1017.3 1017.8 0    
Feb 17 02:53 SSE 11 12.87 Light Rain BKN042 OVC049 3 1     82% 0   1019 1019.2 0 0  
Feb 17 01:53 SSE 18 16.09 Cloudy OVC100 3 -2     67% -1   1018.6 1018.9      
Feb 17 00:53 E 9 16.09 Cloudy OVC110 3 -3     67% 0   1020.3 1020.6      
Feb 16 23:53 ESE 5 16.09 Clear CLR 2 -4     64% 1   1021.3 1021.7      
Feb 16 22:53 E 9 16.09 Clear CLR 2 -4     62% -1   1022 1022.6      
Feb 16 21:53 E 13 16.09 Clear CLR 2 -5     59% -1   1023 1023.5      
Jun 12 01:53 S 15 16.09 Clear CLR 23 18     76%   23 1013.2 1011.9      
Jun 11 21:53 S 17 16.09 Clear CLR 26 18     62%   26 1012.5 1011.3      
Jun 11 11:53   16.09 Partly Cloudy SCT032 29 22     65%   32 1013.9 1012.6      
Jun 11 10:53   16.09 Clear CLR 28 21     65%   31 1013.6 1012.1      
Jun 10 19:53 S 24 16.09 Clear CLR 27 19     62%   29 1010.2 1008.9      
Jun 10 17:53   16.09 Clear CLR 29 20     57%   31 1009.8 1008.8      
Jun 10 11:53   16.09 Clear CLR 28 19     60%   29 1012.5 1011.3      
Jun 09 14:53 S 21 16.09 Partly Cloudy SCT055 27 16     52%   27 1012.9 1012.1      
Jun 09 00:53 SE 5 16.09 Clear CLR 16 13     83%     1013.9 1013      
Jun 08 23:53 S 5 16.09 Clear   17 13     80%     1013.9 1013.1      
Jun 08 12:53 WNW 8 16.09 Clear CLR 26 12     41%   26 1017.6 1016.8      
Jun 08 06:53 Calm 16.09 Clear CLR 13 12     90%     1018 1017.4      
Jun 07 21:53 Calm 16.09 Clear CLR 18 13     75%     1017.6 1016.7      
Jun 07 14:53 NNE 15 16.09 Clear CLR 27 11     37%   27 1018 1017      
Jun 07 11:53 E 15 16.09 Mostly Clear FEW060 26 9     35%   26 1019 1018.2      
Jun 06 11:53 N 8 16.09 Clear CLR 28 18     55%   29 1014.6 1013.4      
Jun 06 10:53 N 8 16.09 Clear CLR 26 19     65%   26 1014.6 1013.3      
Notice The following observation data may not be complete
Jun 06 04:02   3.22 Fog/Mist CLR          %              
Jun 05 19:53 Calm 16.09 Mostly Cloudy BKN075 29 21     63%   31 1010.2 1008.9